Accueil
METAR-TAF:

METAR-TAF

Aéroports :

Aérodrome de Forlì

Forlì, Italie

latitude: 44-12N, longitude: 012-04E, altitude: 27 m

Observation

Le bulletin a été fait il y a 5 heures et 7 minutes, à 16:50 UTC
Vent 1 kt de direction variable
Température 7°C
Humidité 76%
Pression 1007 hPa
Visibilité: 8000 m
Quelques nuages à une hauteur de 2000 ft
Nuages épars à une hauteur de 4000 ft

METAR: LIPK 191650Z VRB01KT 8000 FEW020 SCT040 07/03 Q1007

Heure: 22:57 (21:57 UTC)


TAF: absent

Observations et prévisions météorologiques de plus de 4000 aéroports (messages METAR et TAF).

Les stations disponibles sont représentées par des disques jaunes et rouges sur la carte.

Passer la souris dessus pour voir le nom de la station.

Cliquer dessus pour voir les observations et prévisions météorologiques.

Pour changer de carte: cliquez sur les boutons verts avec une croix noire pour zoomer, sur le bouton vert avec un tiret pour effectuer un zoom arrière, ou sur les flèches vertes pour les cartes adjacentes.


METAR-TAF: